#Datum;Uhrzeit;WR;Pac;DaySum;Status;WR;Pac;DaySum;Status;Pdc1;Udc;Temp;WR;Pac;DaySum;Status;Pdc1;Udc;Temp;WR;Pac;DaySum;Status;Pdc1;Udc;Temp;WR;Pac;DaySum;Status;Pdc1;Pdc2;Udc1;Udc2;Temp;WR;Pac;DaySum;Status;Pdc1;Pdc2;Udc1;Udc2;Temp;WR;Pac;DaySum;Status;Pdc1;Udc;Temp;WR;Pac;DaySum;Status;Pdc1;Udc;Temp;WR;Pac;DaySum;Status;Pdc1;Udc;Temp
11.01.19;23:55:00;1;431;12105;0;2;0;2951;0;0;0;0;3;0;1810;0;0;0;0;4;0;2473;0;0;0;0;5;0;6302;0;0;0;0;0;0;6;0;4848;0;0;0;0;0;0;7;0;3179;0;0;0;0;8;0;3120;0;0;0;0;9;0;1571;0;0;0;0
11.01.19;23:50:00;1;431;12069;0;2;0;2951;0;0;0;0;3;0;1810;0;0;0;0;4;0;2473;0;0;0;0;5;0;6302;0;0;0;0;0;0;6;0;4848;0;0;0;0;0;0;7;0;3179;0;0;0;0;8;0;3120;0;0;0;0;9;0;1571;0;0;0;0
11.01.19;23:45:00;1;794;12033;0;2;0;2951;0;0;0;0;3;0;1810;0;0;0;0;4;0;2473;0;0;0;0;5;0;6302;0;0;0;0;0;0;6;0;4848;0;0;0;0;0;0;7;0;3179;0;0;0;0;8;0;3120;0;0;0;0;9;0;1571;0;0;0;0
11.01.19;23:40:00;1;435;11971;0;2;0;2951;0;0;0;0;3;0;1810;0;0;0;0;4;0;2473;0;0;0;0;5;0;6302;0;0;0;0;0;0;6;0;4848;0;0;0;0;0;0;7;0;3179;0;0;0;0;8;0;3120;0;0;0;0;9;0;1571;0;0;0;0
11.01.19;23:35:00;1;395;11934;0;2;0;2951;0;0;0;0;3;0;1810;0;0;0;0;4;0;2473;0;0;0;0;5;0;6302;0;0;0;0;0;0;6;0;4848;0;0;0;0;0;0;7;0;3179;0;0;0;0;8;0;3120;0;0;0;0;9;0;1571;0;0;0;0
11.01.19;23:30:00;1;661;11903;0;2;0;2951;0;0;0;0;3;0;1810;0;0;0;0;4;0;2473;0;0;0;0;5;0;6302;0;0;0;0;0;0;6;0;4848;0;0;0;0;0;0;7;0;3179;0;0;0;0;8;0;3120;0;0;0;0;9;0;1571;0;0;0;0
11.01.19;23:25:00;1;405;11846;0;2;0;2951;0;0;0;0;3;0;1810;0;0;0;0;4;0;2473;0;0;0;0;5;0;6302;0;0;0;0;0;0;6;0;4848;0;0;0;0;0;0;7;0;3179;0;0;0;0;8;0;3120;0;0;0;0;9;0;1571;0;0;0;0
11.01.19;23:20:00;1;401;11812;0;2;0;2951;0;0;0;0;3;0;1810;0;0;0;0;4;0;2473;0;0;0;0;5;0;6302;0;0;0;0;0;0;6;0;4848;0;0;0;0;0;0;7;0;3179;0;0;0;0;8;0;3120;0;0;0;0;9;0;1571;0;0;0;0
11.01.19;23:15:00;1;786;11778;0;2;0;2951;0;0;0;0;3;0;1810;0;0;0;0;4;0;2473;0;0;0;0;5;0;6302;0;0;0;0;0;0;6;0;4848;0;0;0;0;0;0;7;0;3179;0;0;0;0;8;0;3120;0;0;0;0;9;0;1571;0;0;0;0
11.01.19;23:10:00;1;343;11721;0;2;0;2951;0;0;0;0;3;0;1810;0;0;0;0;4;0;2473;0;0;0;0;5;0;6302;0;0;0;0;0;0;6;0;4848;0;0;0;0;0;0;7;0;3179;0;0;0;0;8;0;3120;0;0;0;0;9;0;1571;0;0;0;0
11.01.19;23:05:00;1;352;11692;0;2;0;2951;0;0;0;0;3;0;1810;0;0;0;0;4;0;2473;0;0;0;0;5;0;6302;0;0;0;0;0;0;6;0;4848;0;0;0;0;0;0;7;0;3179;0;0;0;0;8;0;3120;0;0;0;0;9;0;1571;0;0;0;0
11.01.19;23:00:00;1;568;11662;0;2;0;2951;0;0;0;0;3;0;1810;0;0;0;0;4;0;2473;0;0;0;0;5;0;6302;0;0;0;0;0;0;6;0;4848;0;0;0;0;0;0;7;0;3179;0;0;0;0;8;0;3120;0;0;0;0;9;0;1571;0;0;0;0
11.01.19;22:55:00;1;358;11607;0;2;0;2951;0;0;0;0;3;0;1810;0;0;0;0;4;0;2473;0;0;0;0;5;0;6302;2;0;0;0;0;0;6;0;4848;2;0;0;0;0;0;7;0;3179;0;0;0;0;8;0;3120;0;0;0;0;9;0;1571;0;0;0;0
11.01.19;22:50:00;1;357;11577;0;2;0;2951;0;0;0;0;3;0;1810;0;0;0;0;4;0;2473;0;0;0;0;5;0;6302;2;0;0;0;0;0;6;0;4848;2;0;0;0;0;0;7;0;3179;0;0;0;0;8;0;3120;0;0;0;0;9;0;1571;0;0;0;0
11.01.19;22:45:00;1;360;11547;0;2;0;2951;0;0;0;0;3;0;1810;0;0;0;0;4;0;2473;0;0;0;0;5;0;6302;2;0;0;0;0;0;6;0;4848;2;0;0;0;0;0;7;0;3179;0;0;0;0;8;0;3120;0;0;0;0;9;0;1571;0;0;0;0
11.01.19;22:40:00;1;561;11505;0;2;0;2951;0;0;0;0;3;0;1810;0;0;0;0;4;0;2473;0;0;0;0;5;0;6302;2;0;0;0;0;0;6;0;4848;2;0;0;0;0;0;7;0;3179;0;0;0;0;8;0;3120;0;0;0;0;9;0;1571;0;0;0;0
11.01.19;22:35:00;1;363;11461;0;2;0;2951;0;0;0;0;3;0;1810;0;0;0;0;4;0;2473;0;0;0;0;5;0;6302;2;0;0;0;0;0;6;0;4848;2;0;0;0;0;0;7;0;3179;0;0;0;0;8;0;3120;0;0;0;0;9;0;1571;0;0;0;0
11.01.19;22:30:00;1;368;11431;0;2;0;2951;0;0;0;0;3;0;1810;0;0;0;0;4;0;2473;0;0;0;0;5;0;6302;2;0;0;0;0;0;6;0;4848;2;0;0;0;0;0;7;0;3179;0;0;0;0;8;0;3120;0;0;0;0;9;0;1571;0;0;0;0
11.01.19;22:25:00;1;713;11400;0;2;0;2951;0;0;0;0;3;0;1810;0;0;0;0;4;0;2473;0;0;0;0;5;0;6302;2;0;0;0;0;0;6;0;4848;2;0;0;0;0;0;7;0;3179;0;0;0;0;8;0;3120;0;0;0;0;9;0;1571;0;0;0;0
11.01.19;22:20:00;1;408;11339;0;2;0;2951;0;0;0;0;3;0;1810;0;0;0;0;4;0;2473;0;0;0;0;5;0;6302;2;0;0;0;0;0;6;0;4848;2;0;0;0;0;0;7;0;3179;0;0;0;0;8;0;3120;0;0;0;0;9;0;1571;0;0;0;0
11.01.19;22:15:00;1;423;11305;0;2;0;2951;0;0;0;0;3;0;1810;0;0;0;0;4;0;2473;0;0;0;0;5;0;6302;2;0;0;0;0;0;6;0;4848;2;0;0;0;0;0;7;0;3179;0;0;0;0;8;0;3120;0;0;0;0;9;0;1571;0;0;0;0
11.01.19;22:10:00;1;793;11269;0;2;0;2951;0;0;0;0;3;0;1810;0;0;0;0;4;0;2473;0;0;0;0;5;0;6302;2;0;0;0;0;0;6;0;4848;2;0;0;0;0;0;7;0;3179;0;0;0;0;8;0;3120;0;0;0;0;9;0;1571;0;0;0;0
11.01.19;22:05:00;1;1162;11194;0;2;0;2951;0;0;0;0;3;0;1810;0;0;0;0;4;0;2473;0;0;0;0;5;0;6302;2;0;0;0;0;0;6;0;4848;2;0;0;0;0;0;7;0;3179;0;0;0;0;8;0;3120;0;0;0;0;9;0;1571;0;0;0;0
11.01.19;22:00:00;1;438;11113;0;2;0;2951;0;0;0;0;3;0;1810;0;0;0;0;4;0;2473;0;0;0;0;5;0;6302;2;0;0;0;0;0;6;0;4848;2;0;0;0;0;0;7;0;3179;0;0;0;0;8;0;3120;0;0;0;0;9;0;1571;0;0;0;0
11.01.19;21:55:00;1;795;11077;0;2;0;2951;0;0;0;0;3;0;1810;0;0;0;0;4;0;2473;0;0;0;0;5;0;6302;2;0;0;0;0;0;6;0;4848;2;0;0;0;0;0;7;0;3179;0;0;0;0;8;0;3120;0;0;0;0;9;0;1571;0;0;0;0
11.01.19;21:50:00;1;457;11013;0;2;0;2951;0;0;0;0;3;0;1810;0;0;0;0;4;0;2473;0;0;0;0;5;0;6302;2;0;0;0;0;0;6;0;4848;2;0;0;0;0;0;7;0;3179;0;0;0;0;8;0;3120;0;0;0;0;9;0;1571;0;0;0;0
11.01.19;21:45:00;1;472;10975;0;2;0;2951;0;0;0;0;3;0;1810;0;0;0;0;4;0;2473;0;0;0;0;5;0;6302;2;0;0;0;0;0;6;0;4848;2;0;0;0;0;0;7;0;3179;0;0;0;0;8;0;3120;0;0;0;0;9;0;1571;0;0;0;0
11.01.19;21:40:00;1;867;10936;0;2;0;2951;0;0;0;0;3;0;1810;0;0;0;0;4;0;2473;0;0;0;0;5;0;6302;2;0;0;0;0;0;6;0;4848;2;0;0;0;0;0;7;0;3179;0;0;0;0;8;0;3120;0;0;0;0;9;0;1571;0;0;0;0
11.01.19;21:35:00;1;458;10872;0;2;0;2951;0;0;0;0;3;0;1810;0;0;0;0;4;0;2473;0;0;0;0;5;0;6302;2;0;0;0;0;0;6;0;4848;2;0;0;0;0;0;7;0;3179;0;0;0;0;8;0;3120;0;0;0;0;9;0;1571;0;0;0;0
11.01.19;21:30:00;1;389;10835;0;2;0;2951;0;0;0;0;3;0;1810;0;0;0;0;4;0;2473;0;0;0;0;5;0;6302;2;0;0;0;0;0;6;0;4848;2;0;0;0;0;0;7;0;3179;0;0;0;0;8;0;3120;0;0;0;0;9;0;1571;0;0;0;0
11.01.19;21:25:00;1;629;10802;0;2;0;2951;0;0;0;0;3;0;1810;0;0;0;0;4;0;2473;0;0;0;0;5;0;6302;2;0;0;0;0;0;6;0;4848;2;0;0;0;0;0;7;0;3179;0;0;0;0;8;0;3120;0;0;0;0;9;0;1571;0;0;0;0
11.01.19;21:20:00;1;429;10740;0;2;0;2951;0;0;0;0;3;0;1810;0;0;0;0;4;0;2473;0;0;0;0;5;0;6302;2;0;0;0;0;0;6;0;4848;2;0;0;0;0;0;7;0;3179;0;0;0;0;8;0;3120;0;0;0;0;9;0;1571;0;0;0;0
11.01.19;21:15:00;1;382;10705;0;2;0;2951;0;0;0;0;3;0;1810;0;0;0;0;4;0;2473;0;0;0;0;5;0;6302;2;0;0;0;0;0;6;0;4848;2;0;0;0;0;0;7;0;3179;0;0;0;0;8;0;3120;0;0;0;0;9;0;1571;0;0;0;0
11.01.19;21:10:00;1;287;10673;0;2;0;2951;0;0;0;0;3;0;1810;0;0;0;0;4;0;2473;0;0;0;0;5;0;6302;2;0;0;0;0;0;6;0;4848;2;0;0;0;0;0;7;0;3179;0;0;0;0;8;0;3120;0;0;0;0;9;0;1571;0;0;0;0
11.01.19;21:05:00;1;494;10637;0;2;0;2951;0;0;0;0;3;0;1810;0;0;0;0;4;0;2473;0;0;0;0;5;0;6302;2;0;0;0;0;0;6;0;4848;2;0;0;0;0;0;7;0;3179;0;0;0;0;8;0;3120;0;0;0;0;9;0;1571;0;0;0;0
11.01.19;21:00:00;1;275;10601;0;2;0;2951;0;0;0;0;3;0;1810;0;0;0;0;4;0;2473;0;0;0;0;5;0;6302;2;0;0;0;0;0;6;0;4848;2;0;0;0;0;0;7;0;3179;0;0;0;0;8;0;3120;0;0;0;0;9;0;1571;0;0;0;0
11.01.19;20:55:00;1;284;10578;0;2;0;2951;0;0;0;0;3;0;1810;0;0;0;0;4;0;2473;0;0;0;0;5;0;6302;2;0;0;0;0;0;6;0;4848;2;0;0;0;0;0;7;0;3179;0;0;0;0;8;0;3120;0;0;0;0;9;0;1571;0;0;0;0
11.01.19;20:50:00;1;684;10554;0;2;0;2951;0;0;0;0;3;0;1810;0;0;0;0;4;0;2473;0;0;0;0;5;0;6302;2;0;0;0;0;0;6;0;4848;2;0;0;0;0;0;7;0;3179;0;0;0;0;8;0;3120;0;0;0;0;9;0;1571;0;0;0;0
11.01.19;20:45:00;1;395;10505;0;2;0;2951;0;0;0;0;3;0;1810;0;0;0;0;4;0;2473;0;0;0;0;5;0;6302;2;0;0;0;0;0;6;0;4848;2;0;0;0;0;0;7;0;3179;0;0;0;0;8;0;3120;0;0;0;0;9;0;1571;0;0;0;0
11.01.19;20:40:00;1;1014;10472;0;2;0;2951;0;0;0;0;3;0;1810;0;0;0;0;4;0;2473;0;0;0;0;5;0;6302;2;0;0;0;0;0;6;0;4848;2;0;0;0;0;0;7;0;3179;0;0;0;0;8;0;3120;0;0;0;0;9;0;1571;0;0;0;0
11.01.19;20:35:00;1;1620;10387;0;2;0;2951;0;0;0;0;3;0;1810;0;0;0;0;4;0;2473;0;0;0;0;5;0;6302;2;0;0;0;0;0;6;0;4848;2;0;0;0;0;0;7;0;3179;0;0;0;0;8;0;3120;0;0;0;0;9;0;1571;0;0;0;0
11.01.19;20:30:00;1;814;10258;0;2;0;2951;0;0;0;0;3;0;1810;0;0;0;0;4;0;2473;0;0;0;0;5;0;6302;2;0;0;0;0;0;6;0;4848;2;0;0;0;0;0;7;0;3179;0;0;0;0;8;0;3120;0;0;0;0;9;0;1571;0;0;0;0
11.01.19;20:25:00;1;732;10188;0;2;0;2951;0;0;0;0;3;0;1810;0;0;0;0;4;0;2473;0;0;0;0;5;0;6302;2;0;0;0;0;0;6;0;4848;2;0;0;0;0;0;7;0;3179;0;0;0;0;8;0;3120;0;0;0;0;9;0;1571;0;0;0;0
11.01.19;20:20:00;1;548;10137;0;2;0;2951;0;0;0;0;3;0;1810;0;0;0;0;4;0;2473;0;0;0;0;5;0;6302;2;0;0;0;0;0;6;0;4848;2;0;0;0;0;0;7;0;3179;0;0;0;0;8;0;3120;0;0;0;0;9;0;1571;0;0;0;0
11.01.19;20:15:00;1;339;10081;0;2;0;2951;0;0;0;0;3;0;1810;0;0;0;0;4;0;2473;0;0;0;0;5;0;6302;2;0;0;0;0;0;6;0;4848;2;0;0;0;0;0;7;0;3179;0;0;0;0;8;0;3120;0;0;0;0;9;0;1571;0;0;0;0
11.01.19;20:10:00;1;301;10053;0;2;0;2951;0;0;0;0;3;0;1810;0;0;0;0;4;0;2473;0;0;0;0;5;0;6302;2;0;0;0;0;0;6;0;4848;2;0;0;0;0;0;7;0;3179;0;0;0;0;8;0;3120;0;0;0;0;9;0;1571;0;0;0;0
11.01.19;20:05:00;1;549;10027;0;2;0;2951;0;0;0;0;3;0;1810;0;0;0;0;4;0;2473;0;0;0;0;5;0;6302;2;0;0;0;0;0;6;0;4848;2;0;0;0;0;0;7;0;3179;0;0;0;0;8;0;3120;0;0;0;0;9;0;1571;0;0;0;0
11.01.19;20:00:00;1;375;9973;0;2;0;2951;0;0;0;0;3;0;1810;0;0;0;0;4;0;2473;0;0;0;0;5;0;6302;2;0;0;0;0;0;6;0;4848;2;0;0;0;0;0;7;0;3179;0;0;0;0;8;0;3120;0;0;0;0;9;0;1571;0;0;0;0
11.01.19;19:55:00;1;375;9942;0;2;0;2951;0;0;0;0;3;0;1810;0;0;0;0;4;0;2473;0;0;0;0;5;0;6302;2;0;0;0;0;0;6;0;4848;2;0;0;0;0;0;7;0;3179;0;0;0;0;8;0;3120;0;0;0;0;9;0;1571;0;0;0;0
11.01.19;19:50:00;1;381;9910;0;2;0;2951;0;0;0;0;3;0;1810;0;0;0;0;4;0;2473;0;0;0;0;5;0;6302;2;0;0;0;0;0;6;0;4848;2;0;0;0;0;0;7;0;3179;0;0;0;0;8;0;3120;0;0;0;0;9;0;1571;0;0;0;0
11.01.19;19:45:00;1;729;9864;0;2;0;2951;0;0;0;0;3;0;1810;0;0;0;0;4;0;2473;0;0;0;0;5;0;6302;2;0;0;0;0;0;6;0;4848;2;0;0;0;0;0;7;0;3179;0;0;0;0;8;0;3120;0;0;0;0;9;0;1571;0;0;0;0
11.01.19;19:40:00;1;453;9820;0;2;0;2951;0;0;0;0;3;0;1810;0;0;0;0;4;0;2473;0;0;0;0;5;0;6302;2;0;0;0;0;0;6;0;4848;2;0;0;0;0;0;7;0;3179;0;0;0;0;8;0;3120;0;0;0;0;9;0;1571;0;0;0;0
11.01.19;19:35:00;1;424;9783;0;2;0;2951;0;0;0;0;3;0;1810;0;0;0;0;4;0;2473;0;0;0;0;5;0;6302;2;0;0;0;0;0;6;0;4848;2;0;0;0;0;0;7;0;3179;0;0;0;0;8;0;3120;0;0;0;0;9;0;1571;0;0;0;0
11.01.19;19:30:00;1;748;9748;0;2;0;2951;0;0;0;0;3;0;1810;0;0;0;0;4;0;2473;0;0;0;0;5;0;6302;2;0;0;0;0;0;6;0;4848;2;0;0;0;0;0;7;0;3179;0;0;0;0;8;0;3120;0;0;0;0;9;0;1571;0;0;0;0
11.01.19;19:25:00;1;330;9696;0;2;0;2951;0;0;0;0;3;0;1810;0;0;0;0;4;0;2473;0;0;0;0;5;0;6302;2;0;0;0;0;0;6;0;4848;2;0;0;0;0;0;7;0;3179;0;0;0;0;8;0;3120;0;0;0;0;9;0;1571;0;0;0;0
11.01.19;19:20:00;1;325;9668;0;2;0;2951;0;0;0;0;3;0;1810;0;0;0;0;4;0;2473;0;0;0;0;5;0;6302;2;0;0;0;0;0;6;0;4848;2;0;0;0;0;0;7;0;3179;0;0;0;0;8;0;3120;0;0;0;0;9;0;1571;0;0;0;0
11.01.19;19:15:00;1;522;9641;0;2;0;2951;0;0;0;0;3;0;1810;0;0;0;0;4;0;2473;0;0;0;0;5;0;6302;2;0;0;0;0;0;6;0;4848;2;0;0;0;0;0;7;0;3179;0;0;0;0;8;0;3120;0;0;0;0;9;0;1571;0;0;0;0
11.01.19;19:10:00;1;348;9587;0;2;0;2951;0;0;0;0;3;0;1810;0;0;0;0;4;0;2473;0;0;0;0;5;0;6302;2;0;0;0;0;0;6;0;4848;2;0;0;0;0;0;7;0;3179;0;0;0;0;8;0;3120;0;0;0;0;9;0;1571;0;0;0;0
11.01.19;19:05:00;1;280;9559;0;2;0;2951;0;0;0;0;3;0;1810;0;0;0;0;4;0;2473;0;0;0;0;5;0;6302;2;0;0;0;0;0;6;0;4848;2;0;0;0;0;0;7;0;3179;0;0;0;0;8;0;3120;0;0;0;0;9;0;1571;0;0;0;0
11.01.19;19:00:00;1;1126;9536;0;2;0;2951;0;0;0;0;3;0;1810;0;0;0;0;4;0;2473;0;0;0;0;5;0;6302;2;0;0;0;0;0;6;0;4848;2;0;0;0;0;0;7;0;3179;0;0;0;0;8;0;3120;0;0;0;0;9;0;1571;0;0;0;0
11.01.19;18:55:00;1;534;9483;0;2;0;2951;0;0;0;0;3;0;1810;0;0;0;0;4;0;2473;0;0;0;0;5;0;6302;2;0;0;0;0;0;6;0;4848;2;0;0;0;0;0;7;0;3179;0;0;0;0;8;0;3120;0;0;0;0;9;0;1571;0;0;0;0
11.01.19;18:50:00;1;505;9435;0;2;0;2951;0;0;0;0;3;0;1810;0;0;0;0;4;0;2473;0;0;0;0;5;0;6302;2;0;0;0;0;0;6;0;4848;2;0;0;0;0;0;7;0;3179;0;0;0;0;8;0;3120;0;0;0;0;9;0;1571;0;0;0;0
11.01.19;18:45:00;1;640;9398;0;2;0;2951;0;0;0;0;3;0;1810;0;0;0;0;4;0;2473;0;0;0;0;5;0;6302;2;0;0;0;0;0;6;0;4848;2;0;0;0;0;0;7;0;3179;0;0;0;0;8;0;3120;0;0;0;0;9;0;1571;0;0;0;0
11.01.19;18:40:00;1;468;9333;0;2;0;2951;0;0;0;0;3;0;1810;0;0;0;0;4;0;2473;0;0;0;0;5;0;6302;2;0;0;0;0;0;6;0;4848;2;0;0;0;0;0;7;0;3179;0;0;0;0;8;0;3120;0;0;0;0;9;0;1571;0;0;0;0
11.01.19;18:35:00;1;849;9294;0;2;0;2951;0;0;0;0;3;0;1810;0;0;0;0;4;0;2473;0;0;0;0;5;0;6302;2;0;0;0;0;0;6;0;4848;2;0;0;0;0;0;7;0;3179;0;0;0;0;8;0;3120;0;0;0;0;9;0;1571;0;0;0;0
11.01.19;18:30:00;1;578;9213;0;2;0;2951;0;0;0;0;3;0;1810;0;0;0;0;4;0;2473;0;0;0;0;5;0;6302;2;0;0;0;0;0;6;0;4848;2;0;0;0;0;0;7;0;3179;0;0;0;0;8;0;3120;0;0;0;0;9;0;1571;0;0;0;0
11.01.19;18:25:00;1;483;9166;0;2;0;2951;0;0;0;0;3;0;1810;0;0;0;0;4;0;2473;0;0;0;0;5;0;6302;2;0;0;0;0;0;6;0;4848;2;0;0;0;0;0;7;0;3179;0;0;0;0;8;0;3120;0;0;0;0;9;0;1571;0;0;0;0
11.01.19;18:20:00;1;543;9125;0;2;0;2951;0;0;0;0;3;0;1810;0;0;0;0;4;0;2473;0;0;0;0;5;0;6302;2;0;0;0;0;0;6;0;4848;2;0;0;0;0;0;7;0;3179;0;0;0;0;8;0;3120;0;0;0;0;9;0;1571;0;0;0;0
11.01.19;18:15:00;1;683;9062;0;2;0;2951;0;0;0;0;3;0;1810;0;0;0;0;4;0;2473;0;0;0;0;5;0;6302;2;0;0;0;0;0;6;0;4848;2;0;0;0;0;0;7;0;3179;0;0;0;0;8;0;3120;0;0;0;0;9;0;1571;0;0;0;0
11.01.19;18:10:00;1;447;9018;0;2;0;2951;0;0;0;0;3;0;1810;0;0;0;0;4;0;2473;0;0;0;0;5;0;6302;2;0;0;0;0;0;6;0;4848;2;0;0;0;0;0;7;0;3179;0;0;0;0;8;0;3120;0;0;0;0;9;0;1571;0;0;0;0
11.01.19;18:05:00;1;712;8980;0;2;0;2951;0;0;0;0;3;0;1810;0;0;0;0;4;0;2473;0;0;0;0;5;0;6302;2;0;0;0;0;0;6;0;4848;2;0;0;0;0;0;7;0;3179;0;0;0;0;8;0;3120;0;0;0;0;9;0;1571;0;0;0;0
11.01.19;18:00:00;1;514;8911;0;2;0;2951;0;0;0;0;3;0;1810;0;0;0;0;4;0;2473;0;0;0;0;5;0;6302;2;0;0;0;0;0;6;0;4848;2;0;0;0;0;0;7;0;3179;0;0;0;0;8;0;3120;0;0;0;0;9;0;1571;0;0;0;0
11.01.19;17:55:00;1;516;8868;0;2;0;2951;0;0;0;0;3;0;1810;0;0;0;0;4;0;2473;0;0;0;0;5;0;6302;2;0;0;0;0;0;6;0;4848;2;0;0;0;0;0;7;0;3179;0;0;0;0;8;0;3120;0;0;0;0;9;0;1571;0;0;0;0
11.01.19;17:50:00;1;720;8825;0;2;0;2951;0;0;0;0;3;0;1810;0;0;0;0;4;0;2473;0;0;0;0;5;0;6302;2;0;0;0;0;0;6;0;4848;2;0;0;0;0;0;7;0;3179;0;0;0;0;8;0;3120;0;0;0;0;9;0;1571;0;0;0;0
11.01.19;17:45:00;1;519;8756;0;2;0;2951;0;0;0;0;3;0;1810;0;0;0;0;4;0;2473;0;0;0;0;5;0;6302;2;0;0;0;0;0;6;0;4848;2;0;0;0;0;0;7;0;3179;0;0;0;0;8;0;3120;0;0;0;0;9;0;1571;0;0;0;0
11.01.19;17:40:00;1;518;8713;0;2;0;2951;0;0;0;0;3;0;1810;0;0;0;0;4;0;2473;0;0;0;0;5;0;6302;2;0;0;0;0;0;6;0;4848;2;0;0;0;0;0;7;0;3179;0;0;0;0;8;0;3120;0;0;0;0;9;0;1571;0;0;0;0
11.01.19;17:35:00;1;699;8669;0;2;0;2951;0;0;0;0;3;0;1810;0;0;0;0;4;0;2473;0;0;0;0;5;0;6302;2;0;0;0;0;0;6;0;4848;2;0;0;0;0;0;7;0;3179;0;0;0;0;8;0;3120;0;0;0;0;9;0;1571;0;0;0;0
11.01.19;17:30:00;1;464;8603;0;2;0;2951;0;0;0;0;3;0;1810;0;0;0;0;4;0;2473;0;0;0;0;5;0;6302;2;0;0;0;0;0;6;0;4848;2;0;0;0;0;0;7;0;3179;0;0;0;0;8;0;3120;0;0;0;0;9;0;1571;0;0;0;0
11.01.19;17:25:00;1;490;8563;0;2;0;2951;0;0;0;0;3;0;1810;0;0;0;0;4;0;2473;0;0;0;0;5;0;6302;2;0;0;0;0;0;6;0;4848;2;0;0;0;0;0;7;0;3179;0;0;0;0;8;0;3120;0;0;0;0;9;0;1571;0;0;0;0
11.01.19;17:20:00;1;697;8522;0;2;0;2951;0;0;0;0;3;0;1810;0;0;0;0;4;0;2473;0;0;0;0;5;0;6302;2;0;0;0;0;0;6;0;4848;2;0;0;0;0;0;7;0;3179;0;0;0;0;8;0;3120;0;0;0;0;9;0;1571;0;0;0;0
11.01.19;17:15:00;1;480;8456;0;2;0;2951;0;0;0;0;3;0;1810;0;0;0;0;4;0;2473;0;0;0;0;5;0;6302;2;0;0;0;0;0;6;0;4848;2;0;0;0;0;0;7;0;3179;0;0;0;0;8;0;3120;0;0;0;0;9;0;1571;0;0;0;0
11.01.19;17:10:00;1;454;8416;0;2;0;2951;0;0;0;0;3;0;1810;0;0;0;0;4;0;2473;0;0;0;0;5;0;6302;2;0;0;0;0;0;6;0;4848;2;0;0;0;0;0;7;0;3179;0;0;0;0;8;0;3120;0;0;0;0;9;0;1571;0;0;0;0
11.01.19;17:05:00;1;871;8378;0;2;0;2951;0;0;0;0;3;0;1810;0;0;0;0;4;0;2473;0;0;0;0;5;0;6302;2;0;0;0;0;0;6;0;4848;2;0;0;0;0;0;7;0;3179;0;0;0;0;8;0;3120;0;0;0;0;9;0;1571;0;0;0;0
11.01.19;17:00:00;1;453;8314;0;2;0;2951;0;0;0;0;3;0;1810;0;0;0;0;4;0;2473;0;0;0;0;5;0;6302;2;0;0;0;0;0;6;0;4848;2;0;0;0;0;0;7;0;3179;0;0;0;0;8;0;3120;0;0;0;0;9;0;1571;0;0;0;0
11.01.19;16:55:00;1;456;8276;0;2;0;2951;0;0;0;0;3;0;1810;0;0;0;0;4;0;2473;0;0;0;0;5;0;6302;2;0;0;0;0;0;6;0;4848;2;0;0;0;0;0;7;0;3179;0;0;0;0;8;0;3120;0;0;0;0;9;0;1571;0;0;0;0
11.01.19;16:50:00;1;863;8238;0;2;0;2951;0;0;0;0;3;0;1810;0;0;0;0;4;0;2473;0;0;0;0;5;0;6302;2;0;0;0;0;0;6;0;4848;2;0;0;0;0;0;7;0;3179;0;0;0;0;8;0;3120;0;0;0;0;9;0;1571;0;0;0;0
11.01.19;16:45:00;1;443;8174;0;2;0;2951;0;0;0;0;3;0;1810;0;0;0;0;4;0;2473;0;0;0;0;5;0;6302;2;0;0;0;0;0;6;0;4848;2;0;0;0;0;0;7;0;3179;0;0;0;0;8;0;3120;0;0;0;0;9;0;1571;0;0;0;0
11.01.19;16:40:00;1;1375;8137;0;2;0;2951;0;0;0;0;3;0;1810;0;0;0;0;4;0;2473;0;0;0;0;5;0;6302;2;0;0;0;0;0;6;0;4848;2;0;0;0;0;0;7;0;3179;0;0;0;0;8;0;3120;0;0;0;0;9;0;1571;0;0;0;0
11.01.19;16:35:00;1;2493;8008;0;2;0;2951;0;0;35;1;3;0;1810;0;0;148;6;4;0;2473;0;0;0;0;5;0;6302;2;0;0;0;0;0;6;0;4848;2;0;0;0;0;0;7;0;3179;0;0;0;0;8;0;3120;0;0;0;0;9;0;1571;0;0;0;0
11.01.19;16:30:00;1;2318;7792;0;2;0;2951;6;0;268;8;3;0;1810;6;0;288;12;4;0;2473;0;0;0;0;5;0;6302;2;0;0;0;0;0;6;0;4848;2;0;0;0;0;0;7;0;3179;0;0;0;0;8;0;3120;0;0;0;0;9;0;1571;0;0;0;0
11.01.19;16:25:00;1;1441;7596;0;2;0;2951;6;0;294;8;3;0;1810;6;0;304;12;4;0;2473;0;0;51;2;5;0;6302;2;0;0;0;0;0;6;0;4848;2;0;0;0;0;0;7;0;3179;0;0;0;0;8;0;3120;0;0;0;0;9;0;1571;0;0;0;0
11.01.19;16:20:00;1;1853;7460;0;2;0;2951;6;0;313;8;3;0;1810;6;0;347;12;4;0;2473;2;0;92;4;5;0;6302;2;0;1;55;55;2;6;0;4848;2;1;0;14;14;2;7;0;3179;0;0;0;0;8;0;3120;0;0;0;0;9;0;1571;0;0;0;0
11.01.19;16:15:00;1;571;7290;0;2;0;2951;6;0;357;8;3;0;1810;6;0;414;12;4;0;2473;1;0;141;4;5;0;6302;2;0;0;307;305;14;6;0;4848;23;5;3;180;477;15;7;0;3179;0;0;127;5;8;0;3120;0;0;170;6;9;0;1571;0;0;230;5
11.01.19;16:10:00;1;491;7248;0;2;0;2951;6;0;371;8;3;0;1810;6;2;428;12;4;0;2473;1;0;163;4;5;0;6302;26;0;0;399;463;17;6;0;4848;23;7;5;181;529;15;7;0;3179;6;0;275;10;8;0;3120;6;0;279;9;9;0;1571;6;0;302;7
11.01.19;16:05:00;1;1368;7207;0;2;0;2951;6;0;384;9;3;0;1810;6;1;440;12;4;0;2473;1;0;185;5;5;0;6302;23;0;1;409;466;18;6;0;4848;23;6;5;181;555;16;7;0;3179;6;0;308;10;8;0;3120;6;0;312;10;9;0;1571;6;0;331;7
11.01.19;16:00:00;1;1661;7054;0;2;0;2951;6;0;399;9;3;1;1810;6;4;439;12;4;0;2473;1;0;210;5;5;0;6302;23;0;0;426;573;18;6;0;4848;23;6;4;224;577;16;7;0;3179;6;0;353;10;8;0;3120;6;0;358;10;9;0;1571;6;0;385;7
11.01.19;15:55:00;1;735;6917;0;2;2;2951;6;3;406;9;3;0;1810;6;3;494;12;4;0;2473;1;0;228;5;5;8;6302;1;1;3;429;673;18;6;0;4848;23;7;8;311;598;17;7;0;3179;6;0;387;10;8;0;3120;6;0;402;10;9;0;1571;6;1;420;7
11.01.19;15:50:00;1;1998;6841;0;2;1;2951;6;5;412;9;3;0;1810;6;3;505;12;4;0;2473;3;0;220;6;5;55;6301;1;14;20;398;634;19;6;0;4848;23;5;3;489;609;17;7;0;3179;6;2;430;10;8;0;3120;6;3;416;10;9;0;1571;6;1;476;7
11.01.19;15:45:00;1;2230;6675;0;2;2;2951;4;5;410;9;3;0;1810;6;0;514;12;4;0;2473;3;0;220;6;5;73;6296;4;17;15;386;615;19;6;0;4848;8;3;4;479;611;17;7;2;3179;6;1;443;11;8;0;3120;6;1;448;10;9;1;1571;6;1;492;7
11.01.19;15:40:00;1;1735;6475;0;2;4;2951;3;14;403;9;3;2;1810;3;10;481;12;4;0;2473;3;0;220;6;5;76;6290;4;20;15;387;615;19;6;0;4848;23;2;8;538;609;18;7;0;3179;6;2;435;11;8;1;3120;6;2;447;10;9;0;1571;6;1;493;8
11.01.19;15:35:00;1;1708;6278;0;2;2;2950;6;7;418;9;3;2;1809;6;4;521;12;4;0;2473;3;0;225;6;5;85;6283;4;25;23;386;615;19;6;58;4847;4;24;39;486;465;19;7;0;3179;6;1;458;11;8;0;3120;6;1;460;10;9;2;1571;4;4;479;8
11.01.19;15:30:00;1;577;6162;0;2;11;2950;6;20;405;9;3;0;1809;6;6;499;12;4;0;2473;3;0;210;6;5;100;6276;4;35;34;387;615;19;6;66;4842;4;28;40;486;465;19;7;0;3179;6;0;489;11;8;0;3120;6;0;494;10;9;3;1571;3;6;492;8
11.01.19;15:25:00;1;485;6118;0;2;6;2949;6;9;424;10;3;1;1809;6;6;531;13;4;0;2473;3;0;200;6;5;119;6267;4;45;38;387;616;19;6;76;4837;4;42;59;486;465;19;7;1;3179;3;8;460;11;8;1;3120;3;8;460;11;9;0;1570;6;3;533;8
11.01.19;15:20:00;1;801;6077;0;2;7;2949;6;12;423;10;3;2;1809;6;8;531;13;4;1;2473;3;1;199;6;5;115;6258;4;46;37;387;616;19;6;80;4830;4;34;52;486;465;19;7;0;3179;6;5;458;11;8;1;3120;6;5;480;11;9;3;1570;6;8;498;8
11.01.19;15:15:00;1;472;6009;0;2;54;2948;6;77;399;10;3;0;1809;6;0;574;13;4;18;2473;3;19;198;6;5;161;6248;4;68;58;386;615;19;6;106;4824;4;50;69;486;465;19;7;5;3179;6;7;494;11;8;3;3119;6;7;493;11;9;2;1570;6;4;547;8
11.01.19;15:10:00;1;302;5971;0;2;76;2944;4;104;384;10;3;6;1809;3;13;537;13;4;24;2472;3;25;198;7;5;182;6234;4;77;66;387;616;19;6;117;4815;4;41;61;486;465;19;7;3;3178;6;10;493;12;8;4;3119;6;9;494;11;9;2;1570;6;6;547;8
11.01.19;15:05:00;1;745;5946;0;2;90;2938;4;120;390;10;3;7;1808;6;12;560;13;4;35;2469;3;36;198;7;5;208;6219;4;98;78;387;616;19;6;143;4804;4;50;64;486;465;19;7;23;3178;6;33;449;12;8;14;3119;6;21;461;11;9;0;1570;6;0;583;8
11.01.19;15:00:00;1;251;5899;0;2;85;2930;4;112;387;11;3;9;1807;6;14;553;13;4;26;2466;3;27;198;7;5;187;6201;4;82;66;387;616;19;6;132;4792;4;58;79;486;465;19;7;6;3176;6;12;499;12;8;12;3118;6;24;467;12;9;8;1570;3;17;521;8
11.01.19;14:55:00;1;242;5878;0;2;112;2923;4;142;381;11;3;44;1807;6;68;515;14;4;53;2464;3;55;198;7;5;235;6186;4;109;90;387;616;19;6;156;4781;4;73;85;486;465;19;7;48;3176;6;82;425;12;8;52;3117;6;77;440;12;9;8;1569;6;11;565;9
11.01.19;14:50:00;1;528;5858;0;2;168;2914;4;198;395;11;3;92;1803;4;133;505;14;4;106;2460;3;110;226;7;5;315;6166;4;152;131;387;616;19;6;214;4768;4;80;97;486;465;19;7;127;3172;4;149;431;12;8;115;3113;4;149;430;12;9;40;1568;6;57;533;9
11.01.19;14:45:00;1;242;5812;0;2;200;2900;4;234;404;11;3;115;1796;4;155;530;14;4;135;2451;5;141;238;7;5;360;6139;4;182;156;387;616;19;6;257;4749;4;100;117;486;465;19;7;155;3162;4;191;448;12;8;151;3103;4;190;450;12;9;87;1565;4;113;524;9
11.01.19;14:40:00;1;242;5791;0;2;208;2884;4;243;405;12;3;120;1786;4;163;521;14;4;141;2440;5;146;235;7;5;373;6109;4;187;158;406;616;19;6;278;4727;4;95;124;486;542;19;7;155;3149;4;188;437;12;8;153;3091;4;190;432;12;9;94;1558;4;116;503;9
11.01.19;14:35:00;1;572;5771;0;2;260;2866;4;295;405;12;3;155;1776;4;197;515;14;4;187;2428;5;195;234;7;5;480;6077;4;231;203;422;675;19;6;358;4704;4;182;223;535;581;19;7;195;3136;4;243;454;12;8;209;3078;4;242;452;12;9;115;1550;4;143;517;9
11.01.19;14:30:00;1;256;5725;0;2;284;2845;4;318;392;12;3;173;1763;4;213;529;14;4;211;2413;5;220;239;7;5;536;6037;4;247;226;428;698;19;6;399;4674;4;183;216;579;581;19;7;231;3120;4;265;484;12;8;233;3061;4;268;488;12;9;133;1541;4;157;537;9
11.01.19;14:25:00;1;289;5704;0;2;267;2821;4;301;393;12;3;159;1749;4;199;524;15;4;201;2395;5;209;240;7;5;493;5994;4;236;212;411;691;19;6;395;4640;4;205;245;581;580;19;7;220;3100;4;254;449;12;8;223;3041;4;254;460;12;9;128;1529;4;152;517;9
11.01.19;14:20:00;1;630;5679;0;2;277;2799;4;312;403;12;3;167;1736;4;208;522;15;4;218;2379;5;227;236;7;5;547;5952;4;267;234;428;687;19;6;433;4607;4;174;195;612;580;19;7;247;3082;4;275;438;12;8;242;3023;4;276;457;12;9;129;1519;4;160;539;9
11.01.19;14:15:00;1;311;5629;0;2;300;2776;4;337;402;12;3;184;1722;4;223;512;15;4;237;2360;5;247;237;7;5;618;5906;4;303;265;415;675;19;6;485;4571;4;239;263;601;585;19;7;287;3062;4;318;466;12;8;288;3003;4;323;482;12;9;154;1508;4;183;526;9
11.01.19;14:10:00;1;278;5603;0;2;326;2751;4;363;403;12;3;198;1706;4;238;525;15;4;262;2341;5;273;240;7;5;673;5854;4;321;286;409;690;19;6;519;4531;4;248;258;595;580;19;7;318;3038;4;356;486;13;8;311;2979;4;356;493;12;9;175;1495;4;202;534;10
11.01.19;14:05:00;1;535;5579;0;2;340;2724;4;374;407;12;3;207;1690;4;249;525;15;4;277;2319;5;288;244;7;5;724;5797;4;357;313;426;701;19;6;554;4487;4;271;284;591;585;19;7;361;3011;4;399;496;13;8;360;2953;4;397;503;12;9;197;1481;4;227;540;10
11.01.19;14:00:00;1;288;5528;0;2;313;2695;4;350;399;12;3;194;1673;4;232;527;15;4;250;2296;5;260;238;7;5;677;5737;4;333;291;417;695;19;6;507;4441;4;244;261;585;581;19;7;316;2981;4;351;491;13;8;319;2923;4;361;480;12;9;179;1464;4;204;531;10
11.01.19;13:55:00;1;304;5504;0;2;370;2669;4;407;409;12;3;226;1656;4;268;516;15;4;302;2275;5;314;243;7;5;789;5680;4;392;336;423;700;19;6;592;4398;4;272;280;602;585;19;7;378;2954;4;416;490;13;8;383;2896;4;417;477;12;9;203;1449;4;234;538;10
11.01.19;13:50:00;1;904;5478;0;2;312;2638;4;346;397;12;3;192;1638;4;232;528;15;4;254;2250;5;265;238;7;5;680;5615;4;343;291;421;685;19;6;515;4348;4;277;294;589;585;19;7;316;2923;4;357;500;13;8;318;2864;4;366;497;12;9;180;1432;4;210;537;10
11.01.19;13:45:00;1;341;5424;0;2;272;2612;4;305;399;12;3;163;1621;4;205;504;15;4;214;2228;5;223;238;8;5;586;5560;4;303;248;409;640;20;6;449;4306;4;220;242;597;576;19;7;278;2896;4;315;486;13;8;276;2837;4;319;492;12;9;152;1417;4;180;535;10
11.01.19;13:40:00;1;343;5395;0;2;299;2589;4;334;405;12;3;183;1608;4;222;511;15;4;239;2210;5;249;238;8;5;651;5510;4;322;275;417;690;20;6;485;4268;4;261;281;592;578;19;7;299;2873;4;345;489;13;8;308;2814;4;351;488;12;9;166;1404;4;197;545;10
11.01.19;13:35:00;1;580;5367;0;2;308;2564;4;345;400;13;3;188;1592;4;230;516;15;4;245;2191;5;255;241;8;5;656;5456;4;325;283;414;697;20;6;495;4228;4;240;256;593;579;19;7;300;2848;4;336;483;13;8;292;2788;4;336;487;13;9;159;1391;4;188;530;10